This demonstration page uses our WeatherBlox Daily Observations layout. Learn more.

Left ArrowRight Arrow

41.55636, -103.73856

Hourly Observations for January 1, 2022

Temp ( °F °C ) Dew Point ( °F °C ) Humidity (%) Winds ( mph kmh ) Pressure ( in mb ) Visibility ( mi km ) Precip ( " mm )
12:58 am 00:58 Cloudy with Light Snow 1 -17.5 -3 -19.7 83 83 NE 7 11 30.08 1019 6 10 0.00 0.00
1:58 am 01:58 Cloudy with Light Snow 0 -18 -5 -20.3 82 82 ENE 6 9 30.10 1019 4 6 0.00 0.00
2:58 am 02:58 Cloudy with Light Snow -1 -18.3 -5 -20.7 82 82 NE 8 13 30.10 1019 4 6 0.00 0.00
3:58 am 03:58 Cloudy with Light Snow -3 -19.3 -7 -21.7 81 81 ENE 7 11 30.10 1019 4 6 0.00 0.00
4:58 am 04:58 Mostly Cloudy with Light Snow -4 -20.1 -9 -22.5 81 81 NNE 6 9 30.14 1021 10 16 0.00 0.00
5:58 am 05:58 Mostly Cloudy with Light Snow Showers -4 -20.1 -9 -22.5 81 81 NNE 5 7 30.16 1021 10 16 0.00 0.00
6:58 am 06:58 Mostly Cloudy with Light Snow -3 -19.7 -8 -22.2 81 81 Calm 30.18 1022 10 16 0.00 0.00
7:58 am 07:58 Cloudy with Light Snow -3 -19.5 -8 -22.2 79 79 Calm 30.22 1023 3 5 0.00 0.00
8:58 am 08:58 Cloudy with Light Snow -2 -18.8 -7 -21.6 79 79 Calm 30.27 1025 7 11 0.00 0.00
9:58 am 09:58 Cloudy with Light Snow 0 -18 -6 -20.9 78 78 NW 3 6 30.29 1026 3 4 0.00 0.00
10:58 am 10:58 Mostly Cloudy 2 -16.5 -4 -20 75 75 NW 6 9 30.28 1025 10 16 0.00 0.00
11:58 am 11:58 Cloudy 4 -15.3 -2 -19 74 74 W 5 7 30.25 1024 10 16 0.00 0.00
12:58 pm 12:58 Sunny 7 -14.1 -1 -18.2 71 71 WNW 7 11 30.23 1024 10 16 0.00 0.00
1:58 pm 13:58 Sunny 8 -13.2 0 -18 68 68 WNW 6 9 30.22 1023 10 16 0.00 0.00
2:58 pm 14:58 Sunny 9 -12.7 0 -18 65 65 NW 9 15 30.24 1024 10 16 0.00 0.00
3:58 pm 15:58 Sunny 9 -13 -1 -18.1 66 66 NW 10 17 30.26 1025 10 16 0.00 0.00
4:58 pm 16:58 Clear 2 -16.6 -4 -20.1 75 75 W 9 15 30.30 1026 10 16 0.00 0.00
5:58 pm 17:58 Clear -1 -18.4 -6 -21 80 80 WSW 6 9 30.32 1027 10 16 0.00 0.00
6:58 pm 18:58 Clear 2 -16.6 -4 -19.8 76 76 SSW 5 7 30.31 1026 10 16 0.00 0.00
7:58 pm 19:58 Clear -1 -18.6 -7 -21.6 77 77 SSW 8 13 30.32 1027 10 16 0.00 0.00
8:58 pm 20:58 Clear 1 -17.1 -5 -20.4 76 76 WSW 8 13 30.31 1026 10 16 0.00 0.00
9:58 pm 21:58 Clear 2 -16.5 -5 -20.7 70 70 WSW 9 15 30.29 1026 10 16 0.00 0.00
10:58 pm 22:58 Clear 2 -16.6 -5 -20.6 71 71 SW 13 20 30.30 1026 10 16 0.00 0.00
11:58 pm 23:58 Clear 4 -15.5 -5 -20.5 66 66 SW 12 19 30.29 1026 10 16 0.00 0.00

Powered by AerisWeather